Showing default

COSMOS 2512, 41099

Orbit data source: Space-Track

COSMOS 2512, 41099 is a Commonwealth of Independent States-origin payload satellite in SSO that was launched on Sat, 05 Dec 2015 UTC via a SOYUZ-2-1V launch vehicle from the Plesetsk Missile And Space Complex (PKMTR). Payload-class satellites include a variety of spacecraft equipped with specific instruments for various scientific and technological missions. These include communications satellites like Starlink; space stations such as the ISS; scientific satellites like the Hubble; Earth observation satellites from companies like Planet Labs, Umbra, and HawkEye 360; GPS; miniature CubeSats for education and research; and military/defense satellites.

Loading next visibility...
Identifier
41099, 2015-071B
Orbit
SSO
Country
Flag of CISCIS
Related business
Manufacturer
ALMAN?
Mission
Non-operational Defense Calibration
Bus & Motor
SKRL, Unknown motor
Mass
16 kg wet, 16 kg dry
Launch date (UTC)
2015-12-05 (10 years ago)
Launch vehicle
SOYUZ-2-1V
Launch site
Plesetsk Missile And Space Complex (PKMTR)
Object type
Payload
Rocket body
Debris
Shape & HBR
Sphere, 0.4 m
Radar Cross Section
0.503 m², Medium (>0.1 m² and < 1m²)

Expand to show TLE details & history
Last TLE update: 7 hours ago

TLE from 7 hours ago
0 COSMOS 2512
1 41099U 15071B   25259.25818339  .00002964  00000-0  46113-3 0  9998
2 41099  98.0874 277.4390 0006323 160.1256 200.0199 14.73752007522778
Epoch: 2025-09-16T06:11Z
TLE epoch observation values (Epoch: 2025-09-16T06:11:47.044Z)
Latitude
-0.00009°
Longitude
-170.95807°
Altitude
656.299 km
Speed
7.527 km/s
True Right ascension
18h 29m 45s
True Declination
0° 00' 00"
Sunlit
Object was in daylight at epoch
Visualization orbit readout
Latitude
Unknown
Longitude
Unknown
Altitude
Unknown
Speed
Unknown
Apparent Right ascension
Unknown
Apparent Declination
Unknown
Sunlit
N/A
Visualization observer readout
Local Sidereal Time
05:40:16
Azimuth
Unknown
Elevation
Unknown
Doppler factor
Unknown
Orbital elements
Apogee altitude
650.615 km
Perigee altitude
641.732 km
Semi-major axis
7,024.31 km
Eccentricity
0.00063
Inclination
98.0874°
RAAN
277.439°
Arg. of periapsis
160.1256°
True anomaly
199.99511°
Mean anomaly
200.0199°
Eccentric anomaly
200.0075°
Mean motion
3.6867 °/min
Orbital period
97.65 mins
BSTAR
0.00046113
Loading maneuver chart data...
Computing Atmospheric mass density...
Loading historical data...
Loading historical data...
Loading historical data...
Loading historical data...
Loading historical data...
Loading historical data...
Loading historical data...
Other satellites on launch #71 in the year 2015 (2015-12-05 UTC)

Documentation

Showing up to 5 results
|